• In Russia
  • List of Countries
  • For 7 days
  • Water Temperature
  • Satellite Maps
  • Weather Map
  • Weather Widgets
  • user-avatar
    Login

    Hourly Weather Kasama

    Today, 22 July, Sunday

    Time Temperature Precipitation Wind Pressure Humidity
    00:00 +28°C° 0 mm 0 mps 722 mmHg 49%
    01:00 +27°C° 0 mm 0 mps 722 mmHg 50%
    02:00 +29°C° 0 mm 1 mps 722 mmHg 50%
    03:00 +29°C° 0 mm 1 mps 722 mmHg 51%
    04:00 +28°C° 0 mm 1 mps 722 mmHg 51%
    05:00 +28°C° 0 mm 1 mps 722 mmHg 52%
    06:00 +29°C° 0 mm 1 mps 722 mmHg 49%
    07:00 +31°C° 0 mm 2 mps 723 mmHg 46%
    08:00 +32°C° 0 mm 2 mps 723 mmHg 43%
    09:00 +35°C° 0 mm 2 mps 723 mmHg 39%
    10:00 +37°C° 0 mm 3 mps 723 mmHg 34%
    11:00 +39°C° 0 mm 3 mps 723 mmHg 30%
    12:00 +39°C° 0 mm 3 mps 722 mmHg 29%
    13:00 +40°C° 0 mm 3 mps 722 mmHg 28%
    14:00 +40°C° 0 mm 2 mps 721 mmHg 27%
    15:00 +39°C° 0 mm 2 mps 721 mmHg 28%
    16:00 +39°C° 0 mm 2 mps 720 mmHg 29%
    17:00 +37°C° 0 mm 1 mps 720 mmHg 31%
    18:00 +36°C° 0 mm 1 mps 720 mmHg 33%
    19:00 +35°C° 0 mm 1 mps 720 mmHg 36%
    20:00 +33°C° 0 mm 1 mps 720 mmHg 38%
    21:00 +33°C° 0 mm 1 mps 721 mmHg 40%
    22:00 +32°C° 0 mm 1 mps 721 mmHg 41%
    23:00 +31°C° 0 mm 1 mps 722 mmHg 43%

    Tomorrow, 23 July, Monday

    Time Temperature Precipitation Wind Pressure Humidity
    00:00 +30°C° 0.4 mm 1 mps 722 mmHg 48%
    01:00 +30°C° 0.4 mm 1 mps 721 mmHg 54%
    02:00 +29°C° 0.4 mm 1 mps 721 mmHg 59%
    03:00 +28°C° 0.1 mm 1 mps 721 mmHg 62%
    04:00 +28°C° 0.1 mm 1 mps 721 mmHg 64%
    05:00 +27°C° 0.1 mm 1 mps 721 mmHg 66%
    06:00 +28°C° 0 mm 2 mps 722 mmHg 62%
    07:00 +29°C° 0 mm 2 mps 722 mmHg 58%
    08:00 +31°C° 0 mm 3 mps 723 mmHg 54%
    09:00 +33°C° 0 mm 4 mps 723 mmHg 48%
    10:00 +35°C° 0 mm 4 mps 723 mmHg 41%
    11:00 +37°C° 0 mm 5 mps 723 mmHg 35%
    12:00 +37°C° 0 mm 5 mps 722 mmHg 34%
    13:00 +37°C° 0 mm 4 mps 721 mmHg 33%
    14:00 +37°C° 0 mm 4 mps 721 mmHg 32%
    15:00 +36°C° 0 mm 4 mps 720 mmHg 33%
    16:00 +36°C° 0 mm 3 mps 720 mmHg 34%
    17:00 +35°C° 0 mm 3 mps 719 mmHg 35%
    18:00 +34°C° 0.1 mm 2 mps 720 mmHg 39%
    19:00 +31°C° 0.1 mm 1 mps 720 mmHg 44%
    20:00 +30°C° 0.1 mm 1 mps 721 mmHg 48%
    21:00 +30°C° 0.1 mm 1 mps 721 mmHg 50%
    22:00 +29°C° 0.1 mm 1 mps 721 mmHg 52%
    23:00 +29°C° 0.1 mm 1 mps 721 mmHg 55%

    Day after tomorrow, 24 July, Tuesday

    Time Temperature Precipitation Wind Pressure Humidity
    00:00 +28°C° 0 mm 1 mps 721 mmHg 56%
    01:00 +28°C° 0 mm 1 mps 721 mmHg 58%
    02:00 +28°C° 0 mm 1 mps 720 mmHg 59%
    03:00 +27°C° 0.5 mm 1 mps 721 mmHg 64%
    04:00 +27°C° 0.5 mm 1 mps 721 mmHg 69%
    05:00 +26°C° 0.5 mm 1 mps 721 mmHg 74%
    06:00 +27°C° 1 mm 2 mps 722 mmHg 74%
    07:00 +27°C° 1 mm 2 mps 722 mmHg 75%
    08:00 +27°C° 1 mm 3 mps 723 mmHg 76%
    09:00 +30°C° 0.4 mm 3 mps 723 mmHg 65%
    10:00 +33°C° 0.4 mm 4 mps 723 mmHg 53%
    11:00 +36°C° 0.4 mm 4 mps 723 mmHg 42%
    12:00 +36°C° 0 mm 4 mps 723 mmHg 41%
    13:00 +36°C° 0 mm 3 mps 722 mmHg 41%
    14:00 +36°C° 0 mm 3 mps 721 mmHg 40%
    15:00 +36°C° 0 mm 3 mps 721 mmHg 41%
    16:00 +35°C° 0 mm 3 mps 721 mmHg 42%
    17:00 +35°C° 0 mm 3 mps 720 mmHg 43%
    18:00 +32°C° 0.2 mm 2 mps 721 mmHg 50%
    19:00 +30°C° 0.2 mm 2 mps 721 mmHg 57%
    20:00 +29°C° 0.2 mm 2 mps 722 mmHg 64%
    21:00 +28°C° 0.8 mm 2 mps 722 mmHg 70%
    22:00 +27°C° 0.8 mm 2 mps 722 mmHg 75%
    23:00 +26°C° 0.8 mm 1 mps 723 mmHg 80%

    25 July, Wednesday

    Time Temperature Precipitation Wind Pressure Humidity
    00:00 +26°C° 1 mm 2 mps 722 mmHg 83%
    01:00 +26°C° 1 mm 2 mps 722 mmHg 85%
    02:00 +26°C° 1 mm 2 mps 722 mmHg 87%
    03:00 +26°C° 0.5 mm 2 mps 722 mmHg 87%
    04:00 +25°C° 0.5 mm 2 mps 722 mmHg 88%
    05:00 +25°C° 0.5 mm 2 mps 722 mmHg 88%
    06:00 +26°C° 0.1 mm 2 mps 723 mmHg 85%
    07:00 +26°C° 0.1 mm 2 mps 723 mmHg 83%
    08:00 +27°C° 0.1 mm 2 mps 723 mmHg 80%
    09:00 +28°C° 0.6 mm 3 mps 723 mmHg 75%
    10:00 +29°C° 0.6 mm 3 mps 723 mmHg 70%
    11:00 +30°C° 0.6 mm 3 mps 723 mmHg 66%
    12:00 +30°C° 0.5 mm 3 mps 723 mmHg 65%
    13:00 +30°C° 0.5 mm 3 mps 722 mmHg 64%
    14:00 +30°C° 0.5 mm 3 mps 722 mmHg 64%
    15:00 +30°C° 0 mm 2 mps 722 mmHg 63%
    16:00 +29°C° 0 mm 2 mps 721 mmHg 63%
    17:00 +29°C° 0 mm 2 mps 721 mmHg 63%
    18:00 +28°C° 0 mm 1 mps 722 mmHg 67%
    19:00 +28°C° 0 mm 1 mps 722 mmHg 71%
    20:00 +27°C° 0 mm 1 mps 722 mmHg 74%
    21:00 +27°C° 0 mm 1 mps 722 mmHg 75%
    22:00 +26°C° 0 mm 1 mps 723 mmHg 76%
    23:00 +26°C° 0 mm 1 mps 723 mmHg 77%

    26 July, Thursday

    Time Temperature Precipitation Wind Pressure Humidity
    00:00 +26°C° 0 mm 1 mps 722 mmHg 78%
    01:00 +26°C° 0 mm 1 mps 722 mmHg 78%
    02:00 +26°C° 0 mm 1 mps 722 mmHg 79%
    03:00 +26°C° 0 mm 1 mps 722 mmHg 80%
    04:00 +26°C° 0 mm 1 mps 722 mmHg 80%
    05:00 +25°C° 0 mm 1 mps 722 mmHg 80%
    06:00 +26°C° 0.1 mm 1 mps 722 mmHg 77%
    07:00 +27°C° 0.1 mm 2 mps 723 mmHg 74%
    08:00 +28°C° 0.1 mm 2 mps 723 mmHg 70%
    09:00 +29°C° 1.1 mm 3 mps 723 mmHg 69%
    10:00 +30°C° 1.1 mm 3 mps 723 mmHg 67%
    11:00 +30°C° 1.1 mm 3 mps 723 mmHg 65%
    12:00 +31°C° 0.9 mm 3 mps 722 mmHg 61%
    13:00 +33°C° 0.9 mm 3 mps 721 mmHg 58%
    14:00 +34°C° 0.9 mm 4 mps 721 mmHg 54%
    15:00 +33°C° 0.1 mm 3 mps 721 mmHg 55%
    16:00 +33°C° 0.1 mm 3 mps 721 mmHg 55%
    17:00 +33°C° 0.1 mm 3 mps 720 mmHg 56%
    18:00 +31°C° 0 mm 3 mps 721 mmHg 61%
    19:00 +29°C° 0 mm 2 mps 721 mmHg 66%
    20:00 +28°C° 0 mm 2 mps 722 mmHg 71%
    21:00 +28°C° 0 mm 1 mps 722 mmHg 72%
    22:00 +27°C° 0 mm 1 mps 722 mmHg 73%
    23:00 +27°C° 0 mm 1 mps 722 mmHg 74%

    27 July, Friday

    Time Temperature Precipitation Wind Pressure Humidity
    00:00 +27°C° 1.1 mm 1 mps 722 mmHg 77%
    01:00 +26°C° 1.1 mm 2 mps 722 mmHg 80%
    02:00 +26°C° 1.1 mm 2 mps 721 mmHg 83%
    03:00 +25°C° 0.4 mm 2 mps 722 mmHg 84%
    04:00 +25°C° 0.4 mm 2 mps 722 mmHg 86%
    05:00 +25°C° 0.4 mm 3 mps 722 mmHg 88%
    06:00 +26°C° 0 mm 3 mps 723 mmHg 84%
    07:00 +26°C° 0 mm 3 mps 723 mmHg 81%
    08:00 +27°C° 0 mm 2 mps 724 mmHg 78%
    09:00 +28°C° 1.1 mm 3 mps 724 mmHg 73%
    10:00 +30°C° 1.1 mm 3 mps 723 mmHg 68%
    11:00 +32°C° 1.1 mm 4 mps 723 mmHg 64%
    12:00 +32°C° 1.3 mm 4 mps 723 mmHg 63%
    13:00 +31°C° 1.3 mm 3 mps 722 mmHg 62%
    14:00 +33°C° 1.3 mm 3 mps 721 mmHg 61%
    15:00 +31°C° 0.6 mm 3 mps 721 mmHg 61%
    16:00 +31°C° 0.6 mm 3 mps 721 mmHg 61%
    17:00 +31°C° 0.6 mm 2 mps 721 mmHg 61%
    18:00 +30°C° 0.3 mm 2 mps 722 mmHg 67%
    19:00 +28°C° 0.3 mm 2 mps 722 mmHg 73%
    20:00 +27°C° 0.3 mm 1 mps 722 mmHg 78%
    21:00 +27°C° 0 mm 1 mps 723 mmHg 78%
    22:00 +26°C° 0 mm 1 mps 723 mmHg 77%
    23:00 +26°C° 0 mm 1 mps 723 mmHg 77%
    Show more